Location: Unspecified
(0.0000°N, 0.0000°E)
Time: 13:56:14
(UTC+00:00)

STARLINK-35385 - Pass Details

Date: 22 February 2026
Orbit: 474 x 476 km, 53.2° (Epoch: 14 March)

Event Time Altitude Azimuth Distance (km) Brightness Sun altitude
Rises 18:33:30 0° 198° (SSW) 2,518 6.4 -4.9°
Reaches altitude 10° 18:35:51 10° 186° (S) 1,637 5.3 -5.5°
Maximum altitude 18:39:07 30° 124° (SE) 879 3.3 -6.3°
Drops below altitude 10° 18:42:22 10° 62° (ENE) 1,629 4.4 -7.1°
Enters shadow 18:42:55 - 58° (ENE) 1,829 4.7 -7.3°
